TimeCDT,TemperatureF,Dew PointF,Humidity,Sea Level PressureIn,VisibilityMPH,Wind Direction,Wind SpeedMPH,Gust SpeedMPH,PrecipitationIn,Events,Conditions,WindDirDegrees,DateUTC
12:15 AM,36.5,34.7,93,29.99,10.0,Calm,Calm,-,N/A,,Clear,0,2013-09-22 05:15:00
12:35 AM,36.5,34.2,91,30.00,10.0,Calm,Calm,-,N/A,,Clear,0,2013-09-22 05:35:00
12:55 AM,36.5,34.7,93,30.00,10.0,Calm,Calm,-,N/A,,Clear,0,2013-09-22 05:55:00
1:15 AM,34.9,33.1,93,30.01,1.5,Calm,Calm,-,N/A,,Mist,0,2013-09-22 06:15:00
1:35 AM,34.0,32.4,94,30.01,10.0,Calm,Calm,-,N/A,,Clear,0,2013-09-22 06:35:00
1:55 AM,34.0,32.4,94,30.01,10.0,Calm,Calm,-,N/A,,Clear,0,2013-09-22 06:55:00
2:15 AM,34.0,32.5,94,30.01,10.0,Calm,Calm,-,N/A,,Clear,0,2013-09-22 07:15:00
2:35 AM,34.0,32.5,94,30.01,3.0,Calm,Calm,-,N/A,,Clear,0,2013-09-22 07:35:00
2:55 AM,33.1,31.8,95,30.01,10.0,Calm,Calm,-,N/A,,Clear,0,2013-09-22 07:55:00
3:15 AM,33.6,32.2,94,30.01,10.0,Calm,Calm,-,N/A,,Clear,0,2013-09-22 08:15:00
3:35 AM,34.0,32.5,94,30.02,10.0,Calm,Calm,-,N/A,,Clear,0,2013-09-22 08:35:00
3:55 AM,33.6,32.2,94,30.02,10.0,Calm,Calm,-,N/A,,Clear,0,2013-09-22 08:55:00
4:15 AM,34.0,32.5,94,30.02,7.0,Calm,Calm,-,N/A,,Clear,0,2013-09-22 09:15:00
4:35 AM,33.1,31.8,95,30.03,0.5,Calm,Calm,-,N/A,Fog,Fog,0,2013-09-22 09:35:00
4:55 AM,34.0,32.5,94,30.03,0.2,Calm,Calm,-,N/A,Fog,Fog,0,2013-09-22 09:55:00
5:15 AM,34.0,32.5,94,30.03,0.2,Calm,Calm,-,N/A,Fog,Fog,0,2013-09-22 10:15:00
5:35 AM,32.9,31.8,96,30.03,0.2,Calm,Calm,-,N/A,Fog,Fog,0,2013-09-22 10:35:00
5:55 AM,32.0,30.9,96,30.04,0.2,Calm,Calm,-,N/A,Fog,Fog,0,2013-09-22 10:55:00
6:15 AM,31.8,30.6,95,30.04,1.0,Calm,Calm,-,N/A,,Mist,0,2013-09-22 11:15:00
6:35 AM,32.7,31.6,96,30.05,0.8,Calm,Calm,-,N/A,,Mostly Cloudy,0,2013-09-22 11:35:00
6:55 AM,32.0,30.9,96,30.05,0.2,Calm,Calm,-,N/A,Fog,Fog,0,2013-09-22 11:55:00
7:15 AM,33.3,32.2,96,30.05,0.2,Calm,Calm,-,N/A,Fog,Fog,0,2013-09-22 12:15:00
7:35 AM,34.0,32.9,96,30.05,0.2,Calm,Calm,-,N/A,Fog,Fog,0,2013-09-22 12:35:00
7:55 AM,34.0,32.9,96,30.06,0.2,Calm,Calm,-,N/A,Fog,Fog,0,2013-09-22 12:55:00
8:15 AM,36.5,35.2,95,30.06,1.5,Calm,Calm,-,N/A,,Mostly Cloudy,0,2013-09-22 13:15:00
8:35 AM,39.2,37.8,95,30.07,1.2,Calm,Calm,-,N/A,,Overcast,0,2013-09-22 13:35:00
8:55 AM,41.5,40.3,95,30.08,7.0,Calm,Calm,-,N/A,,Mostly Cloudy,0,2013-09-22 13:55:00
9:15 AM,42.8,41.5,95,30.08,10.0,East,3.5,-,N/A,,Overcast,100,2013-09-22 14:15:00
9:35 AM,43.0,41.5,95,30.09,10.0,SE,5.8,-,N/A,,Overcast,130,2013-09-22 14:35:00
9:55 AM,43.5,41.0,91,30.09,10.0,SE,4.6,-,N/A,,Overcast,140,2013-09-22 14:55:00
10:15 AM,46.2,38.8,75,30.09,10.0,SE,5.8,-,N/A,,Overcast,130,2013-09-22 15:15:00
10:35 AM,46.8,39.0,74,30.10,10.0,ESE,3.5,-,N/A,,Overcast,110,2013-09-22 15:35:00
10:55 AM,48.7,40.1,72,30.09,10.0,South,4.6,-,N/A,,Overcast,170,2013-09-22 15:55:00
11:15 AM,50.7,40.5,68,30.09,10.0,SE,5.8,-,N/A,,Mostly Cloudy,140,2013-09-22 16:15:00
11:35 AM,49.3,40.1,71,30.08,10.0,Calm,Calm,-,N/A,,Clear,0,2013-09-22 16:35:00
11:55 AM,51.8,40.5,65,30.08,10.0,SSE,5.8,-,N/A,,Clear,160,2013-09-22 16:55:00
12:15 PM,51.8,40.6,66,30.07,10.0,South,6.9,-,N/A,,Scattered Clouds,170,2013-09-22 17:15:00
12:35 PM,53.6,41.2,63,30.07,10.0,SSE,6.9,-,N/A,,Mostly Cloudy,150,2013-09-22 17:35:00
12:55 PM,52.0,39.7,63,30.06,10.0,Calm,Calm,-,N/A,,Scattered Clouds,0,2013-09-22 17:55:00
1:15 PM,54.3,41.9,63,30.06,10.0,SSW,6.9,-,N/A,,Clear,210,2013-09-22 18:15:00
1:35 PM,56.7,43.5,61,30.05,10.0,SSE,6.9,-,N/A,,Clear,150,2013-09-22 18:35:00
1:55 PM,56.7,43.3,61,30.04,10.0,SSE,8.1,-,N/A,,Clear,160,2013-09-22 18:55:00
2:15 PM,56.8,43.2,60,30.04,10.0,Calm,Calm,-,N/A,,Clear,0,2013-09-22 19:15:00
2:35 PM,56.8,42.6,59,30.03,10.0,South,6.9,-,N/A,,Clear,180,2013-09-22 19:35:00
2:55 PM,56.8,42.6,59,30.03,10.0,SSE,5.8,-,N/A,,Clear,150,2013-09-22 19:55:00
3:15 PM,56.8,42.1,58,30.02,10.0,SSW,6.9,-,N/A,,Clear,200,2013-09-22 20:15:00
3:35 PM,57.7,42.6,57,30.02,10.0,SSW,6.9,-,N/A,,Clear,200,2013-09-22 20:35:00
3:55 PM,58.6,42.3,55,30.01,10.0,South,4.6,-,N/A,,Clear,180,2013-09-22 20:55:00
4:15 PM,59.4,42.6,54,30.01,10.0,South,8.1,-,N/A,,Clear,190,2013-09-22 21:15:00
4:35 PM,59.4,43.0,55,30.00,10.0,SSE,6.9,-,N/A,,Clear,160,2013-09-22 21:35:00
4:55 PM,59.4,42.8,54,30.00,10.0,SSW,5.8,-,N/A,,Clear,200,2013-09-22 21:55:00
5:15 PM,59.4,42.8,54,30.00,10.0,SSE,5.8,-,N/A,,Clear,160,2013-09-22 22:15:00
5:35 PM,59.4,42.6,54,30.00,10.0,South,4.6,-,N/A,,Clear,180,2013-09-22 22:35:00
5:55 PM,58.6,42.6,55,30.00,10.0,South,5.8,-,N/A,,Clear,180,2013-09-22 22:55:00
6:15 PM,57.0,42.3,58,30.00,10.0,South,3.5,-,N/A,,Clear,170,2013-09-22 23:15:00
6:35 PM,56.8,43.2,60,30.00,10.0,SSE,4.6,-,N/A,,Clear,150,2013-09-22 23:35:00
6:55 PM,56.8,45.9,67,30.00,10.0,Calm,Calm,-,N/A,,Clear,0,2013-09-22 23:55:00
7:15 PM,51.8,44.8,77,30.01,10.0,Calm,Calm,-,N/A,,Clear,0,2013-09-23 00:15:00
7:35 PM,51.8,46.9,83,30.01,10.0,ESE,3.5,-,N/A,,Clear,110,2013-09-23 00:35:00
7:55 PM,50.4,45.7,84,30.02,10.0,Calm,Calm,-,N/A,,Clear,0,2013-09-23 00:55:00
8:15 PM,45.9,42.8,89,30.02,10.0,Calm,Calm,-,N/A,,Clear,0,2013-09-23 01:15:00
8:35 PM,45.7,42.8,90,30.03,10.0,Calm,Calm,-,N/A,,Clear,0,2013-09-23 01:35:00
8:55 PM,45.5,41.9,87,30.03,10.0,South,4.6,-,N/A,,Clear,170,2013-09-23 01:55:00
9:15 PM,51.8,44.6,76,30.03,10.0,South,6.9,-,N/A,,Clear,170,2013-09-23 02:15:00
9:35 PM,51.8,44.8,77,30.03,10.0,South,6.9,-,N/A,,Clear,170,2013-09-23 02:35:00
9:55 PM,51.8,45.0,77,30.04,10.0,South,8.1,-,N/A,,Clear,170,2013-09-23 02:55:00
10:15 PM,51.3,45.0,79,30.04,10.0,South,8.1,-,N/A,,Clear,180,2013-09-23 03:15:00
10:35 PM,49.3,43.7,81,30.04,10.0,SSE,6.9,-,N/A,,Clear,150,2013-09-23 03:35:00
10:55 PM,49.3,43.7,81,30.04,10.0,SSE,6.9,-,N/A,,Clear,160,2013-09-23 03:55:00
11:15 PM,46.8,42.1,84,30.05,10.0,SSE,3.5,-,N/A,,Clear,150,2013-09-23 04:15:00
11:35 PM,45.5,41.5,86,30.05,10.0,South,3.5,-,N/A,,Clear,170,2013-09-23 04:35:00
11:55 PM,45.5,41.9,87,30.05,10.0,SSE,4.6,-,N/A,,Clear,160,2013-09-23 04:55:00